sat.trackr.live / text

‹ back to catalog

STARLINK-4729

NORAD 53804 · 2022-111AH

PAYLOAD ACTIVE UNKNOWN

§ Identity

Operator
Country
US
Launch date
2022-09-11
Launch site
AFETR
Launch vehicle
Mass (kg)
RCS (m²)

Purposes: comms

External: N2YO · Heavens-Above · Gunter

§ Orbital elements

Epoch: 2026-09-20T19:39:05.078592Z

Period
93.85 min
Inclination
53.1605°
Eccentricity
0.0001247
Mean motion
15.34392814 rev/d
Perigee alt
461.9 km
Apogee alt
463.6 km
Semi-major
6,840.9 km
B*
1.8973e-5
RAAN
89.9002°
Arg perigee
88.1839°
Mean anomaly
271.9306°
Rev number
22,352

§ Raw data

STARLINK-47291 53804U 22111AH  26263.81880878  .00000265  00000+0  18973-4 0  99982 53804  53.1605  89.9002 0001247  88.1839 271.9306 15.34392814223523

JSON: /api/v1/satellites/53804 · /tle

For live sub-satellite position, see the globe view (requires WebGL).

§ Visibility from observer

Set your observer location to see the next 7 days of passes ≥ 10°. The values pass through the URL so the page stays shareable.

No JS? Fill the form by hand. The geolocation button needs JavaScript.